Temperature
33 33 32 32 33 33 33 33 33 33 35 34 33 32 32 32 31 30 29 29 28 27 26 25 24 23 22 22 21 21 21 20 20 20 20 20 20 20 20 20 20 19 19 19
33 32 34 34 34 34 34 33 33 34 35 34 33 32 32 32 32 31 30 29 28 27 26 25 24 24 23 22 21 21 21 21 20 20 20 20 20 20 20 20 20 19 19 19
32 33 34 34 34 34 34 33 33 33 34 34 33 32 31 31 32 31 31 30 29 27 26 25 24 24 23 22 21 21 21 21 20 20 20 20 20 20 20 20 20 19 19 19
32 34 34 33 34 34 33 34 34 34 33 33 33 30 30 30 30 31 31 30 29 28 26 25 24 24 23 23 22 21 21 21 20 20 20 20 20 20 20 20 20 19 19 19
33 34 34 34 34 35 34 35 34 34 33 33 33 31 30 30 29 30 31 30 29 28 27 26 25 24 24 23 22 21 21 21 21 20 20 20 20 20 20 20 20 19 19 19
33 35 35 34 35 35 35 34 33 33 32 31 32 31 30 30 30 30 30 30 29 29 27 26 25 24 24 23 22 22 21 21 21 20 20 20 20 20 20 20 20 19 19 19
33 34 35 35 34 35 34 32 30 30 29 29 31 30 30 31 31 31 31 30 30 29 28 27 26 25 24 23 23 22 21 21 21 21 20 20 20 20 20 20 19 19 19 19
32 32 34 35 34 33 33 32 30 29 29 30 30 30 31 32 33 32 31 30 30 29 28 27 26 25 24 24 23 22 22 21 21 21 20 20 20 20 19 19 19 19 19 19
32 32 34 35 35 34 33 33 33 32 31 30 30 30 31 32 32 32 31 30 30 29 28 28 27 26 25 24 23 23 22 21 21 21 20 20 20 20 19 19 19 19 19 19
32 31 33 35 35 35 34 34 33 32 29 29 30 30 30 30 30 31 31 31 30 29 28 27 27 26 25 24 23 23 22 21 21 21 20 20 20 20 20 19 19 19 19 19
33 31 32 33 33 33 33 33 33 32 31 30 29 29 31 30 30 31 31 30 30 29 28 27 27 26 25 24 23 23 22 21 21 20 20 20 20 20 19 19 19 19 19 19
33 32 31 32 34 34 34 33 32 31 30 31 31 30 32 31 31 31 31 30 29 29 28 27 26 26 25 24 24 23 22 21 21 20 20 19 19 19 19 19 19 19 19 18
32 31 29 30 32 33 33 33 33 32 32 31 30 30 32 31 30 30 30 30 29 28 27 27 26 25 25 24 24 23 22 21 21 20 19 19 19 19 19 19 19 19 18 18
31 31 30 29 30 31 31 32 32 32 31 30 30 30 31 31 30 30 29 29 28 27 27 26 25 25 24 24 23 23 22 21 21 20 19 19 19 19 19 18 18 18 18 18
31 30 30 30 31 31 31 31 31 31 31 30 30 30 30 30 30 30 29 28 28 27 26 25 25 24 23 23 23 22 21 21 20 20 19 19 19 18 18 18 18 18 18 18
31 30 29 29 30 31 30 31 31 31 31 31 30 30 31 30 30 29 29 28 27 26 25 25 24 23 23 23 22 22 21 21 20 20 19 19 18 18 18 18 18 18 18 17
30 29 28 28 30 29 29 30 30 30 31 31 30 30 30 29 28 28 28 27 26 26 25 24 23 23 22 22 21 21 21 20 20 19 19 19 18 18 18 18 18 18 17 17
29 28 28 28 28 27 29 31 31 30 30 31 30 30 30 29 28 28 27 26 25 25 24 24 23 22 22 21 21 20 20 20 19 19 19 18 18 18 18 18 18 17 17 17
30 28 27 27 27 27 29 30 31 30 29 31 30 30 29 29 28 27 26 25 25 24 24 23 23 22 21 21 20 20 19 19 19 18 18 18 18 18 18 17 17 17 17 17
29 28 27 26 26 26 28 30 30 30 28 30 29 29 29 28 27 27 25 25 24 24 23 22 22 21 21 20 20 19 19 19 18 18 18 18 17 17 17 17 17 17 17 17
27 27 26 26 26 27 28 29 29 27 27 28 28 28 27 27 26 25 24 24 23 23 22 22 21 21 20 20 19 19 19 19 18 18 18 17 17 17 17 17 17 16 16 16
26 26 26 26 25 26 28 28 27 26 26 27 27 26 25 25 25 24 23 23 22 22 21 21 20 20 19 19 19 18 18 18 18 17 17 17 17 17 17 17 16 16 16 16
26 26 26 26 26 26 27 26 26 26 26 26 25 25 24 24 23 23 23 22 21 21 20 20 19 19 18 18 18 18 18 17 17 17 17 17 17 17 17 16 16 16 16 15
26 26 25 25 26 26 26 26 25 25 25 25 25 24 24 23 23 23 22 21 21 20 20 19 19 18 17 17 17 17 17 17 17 16 16 16 16 16 16 16 16 16 15 15
25 25 25 24 25 25 25 25 24 24 24 24 24 24 23 23 22 22 21 20 20 19 19 18 18 17 17 17 16 16 16 16 16 16 16 16 16 16 16 16 16 16 16 15
24 24 24 24 24 24 24 24 23 23 23 23 23 23 22 22 21 21 20 20 19 19 18 18 17 17 17 16 16 16 16 16 16 15 15 15 15 16 16 16 15 15 15 15
Wind_Speed
12 11 9 8 9 8 8 8 5 3 3 3 4 6 10 12 11 11 11 11 12 13 13 12 12 12 12 10 9 8 8 7 5 4 4 4 3 3 3 3 4 4 3 2
11 12 12 10 9 9 9 7 7 4 3 5 5 5 8 10 11 12 12 12 13 13 13 12 12 12 12 11 10 9 7 8 7 5 4 3 3 3 3 1 3 3 3 2
12 11 9 8 10 10 8 8 7 7 6 7 6 4 4 7 8 9 11 12 14 15 15 13 12 12 12 11 11 10 8 7 7 6 4 3 2 2 2 2 2 3 3 2
13 15 10 11 12 10 9 7 7 9 9 8 8 5 6 7 7 7 9 11 12 14 15 15 14 12 12 12 11 9 9 8 7 6 5 5 4 3 3 2 2 2 2 2
13 13 12 12 11 10 8 8 9 11 12 11 9 5 6 9 7 8 8 10 11 13 14 15 15 13 12 12 12 10 8 7 7 5 5 5 4 3 2 2 2 3 2 2
17 14 11 11 11 11 8 9 11 12 12 11 7 5 3 5 8 9 9 10 10 11 13 13 12 12 11 11 11 11 10 8 7 6 6 5 4 3 2 2 2 2 2 2
17 17 13 11 12 10 9 8 7 8 6 7 6 4 3 5 6 7 9 9 10 11 12 12 12 11 11 11 11 11 11 10 8 7 5 5 4 4 3 3 3 3 2 2
14 13 12 11 11 9 9 9 9 9 8 6 4 3 3 5 5 6 8 9 9 11 12 12 12 11 11 11 11 11 11 10 9 8 6 5 5 4 3 3 2 3 2 2
11 11 10 10 10 10 10 10 11 10 12 8 3 3 2 4 3 3 7 9 8 8 9 10 10 11 11 10 10 10 10 9 9 8 7 6 5 4 3 3 3 2 2 2
13 11 12 10 9 12 12 12 9 8 7 9 7 4 2 3 3 3 5 7 8 9 9 9 8 8 9 10 9 9 10 9 8 7 6 6 5 5 3 3 2 2 1 1
12 12 13 11 11 12 11 12 9 8 8 9 7 2 3 5 4 3 5 8 8 7 7 7 7 7 8 9 10 10 10 9 8 7 6 5 6 5 5 3 3 2 2 2
11 11 12 13 11 12 12 12 10 9 9 10 10 3 3 4 2 2 3 7 8 6 6 6 6 5 6 7 9 10 10 10 9 8 7 6 6 5 5 5 3 3 3 2
7 9 11 12 11 10 11 11 12 12 11 11 9 4 4 5 3 2 3 5 7 5 5 5 5 4 5 5 5 7 9 10 10 9 8 7 6 6 5 5 4 4 3 3
7 12 13 14 11 9 11 13 11 12 11 9 8 5 2 3 2 3 4 5 5 6 4 4 4 3 3 3 4 5 6 7 8 8 8 7 7 6 6 5 5 4 4 4
10 14 15 15 14 14 14 14 13 13 13 12 8 7 4 0 2 3 5 4 4 5 5 4 3 3 2 2 4 4 4 5 6 7 7 7 6 5 5 5 5 4 4 4
11 12 14 15 15 16 16 14 14 14 13 12 9 7 3 1 2 4 4 3 3 3 3 4 3 3 3 3 4 4 4 5 5 6 6 6 5 5 5 5 5 4 4 4
10 11 13 15 14 15 16 13 12 12 12 11 8 5 2 2 2 2 3 2 2 2 2 3 2 3 3 3 3 4 4 5 5 5 5 5 6 5 5 6 5 5 4 4
11 9 10 14 15 18 12 10 11 12 11 10 5 3 2 1 1 2 2 3 3 1 1 2 2 2 3 3 3 3 4 4 5 5 5 5 6 6 5 5 5 5 4 4
12 9 10 12 14 15 13 10 9 9 9 7 4 2 1 1 1 2 5 5 4 2 2 2 2 2 3 2 2 3 3 4 5 5 5 5 5 5 5 5 5 4 4 4
11 9 10 11 13 14 10 9 7 8 8 3 1 2 1 0 2 1 4 4 3 3 3 3 2 3 4 3 2 2 3 3 3 4 4 4 5 5 5 5 4 4 3 4
11 11 13 13 14 11 8 5 5 7 3 4 3 3 2 2 2 3 4 4 3 4 4 4 3 3 3 3 3 1 2 2 2 3 3 3 4 4 5 4 4 4 4 4
11 10 11 12 14 9 4 2 2 3 5 5 4 4 5 5 4 4 4 3 3 3 4 3 3 3 3 2 2 1 1 0 1 2 3 3 3 4 4 3 4 4 4 4
9 9 8 8 7 1 3 3 2 2 3 4 3 3 4 3 1 1 2 3 2 2 2 3 3 3 3 2 1 1 1 1 1 2 2 3 3 3 3 4 4 4 4 4
8 6 6 5 4 3 3 3 3 3 3 4 3 2 1 2 2 1 2 2 2 2 2 2 2 2 1 1 1 0 0 1 1 2 2 2 3 3 3 3 4 4 4 4
6 5 6 6 4 4 3 3 4 4 4 5 5 3 3 3 2 1 2 3 2 2 1 1 1 2 1 1 0 0 0 1 2 2 2 3 3 3 2 2 1 2 2 3
7 7 6 5 3 4 4 4 5 5 4 5 5 4 2 2 1 1 1 2 2 2 1 0 1 2 2 1 1 0 1 1 1 2 3 3 3 2 3 3 1 4 2 2
Wind_Direction
233 237 244 237 232 237 239 254 266 253 226 241 212 179 173 168 176 171 175 176 179 175 171 171 175 168 165 164 165 170 173 166 178 189 189 199 201 206 197 191 170 168 193 201
246 246 254 263 247 247 253 267 274 251 208 254 249 194 179 174 182 176 180 182 178 172 166 173 178 176 171 166 167 170 176 172 185 186 189 198 203 212 201 192 149 171 182 208
242 249 247 257 266 265 270 266 273 284 270 256 255 216 179 184 187 181 185 183 178 176 171 173 182 181 173 170 173 178 177 172 184 184 188 204 190 220 219 178 169 170 170 204
248 252 242 248 254 259 262 269 277 276 271 265 252 244 188 189 205 195 191 180 180 174 171 175 182 182 179 176 174 166 166 171 180 189 193 199 200 211 211 190 175 163 163 197
249 250 247 252 261 265 274 292 289 283 277 269 257 255 202 177 196 202 192 183 184 175 172 176 179 179 181 177 175 169 166 174 178 185 194 202 210 210 198 176 167 175 171 194
255 253 250 255 260 262 262 275 277 271 270 267 272 272 234 183 183 190 185 181 182 169 169 172 175 171 178 178 176 172 165 173 179 187 196 195 209 210 194 188 176 187 183 177
246 243 237 240 252 255 257 266 279 277 260 258 264 252 215 171 173 169 167 165 169 169 166 168 172 174 178 178 177 171 166 172 177 183 189 189 200 201 207 211 192 193 193 171
250 247 235 236 245 255 257 257 260 277 282 273 242 240 183 157 147 148 147 152 165 169 168 170 171 171 175 176 172 169 167 172 177 181 185 186 193 205 206 206 206 183 196 179
258 258 252 243 245 250 256 260 270 279 284 291 268 223 183 130 120 148 146 150 156 156 157 163 168 169 172 173 170 170 165 170 176 182 183 185 184 191 201 194 203 196 199 195
258 271 262 251 246 237 245 265 272 272 282 285 271 250 176 138 149 185 162 150 144 144 155 155 160 165 168 173 171 164 161 169 175 177 185 182 180 180 186 201 194 182 188 172
249 260 264 251 239 250 241 252 268 282 274 279 281 264 148 152 184 183 177 152 135 142 144 149 153 160 165 170 171 168 165 167 171 175 175 176 179 182 183 189 178 171 182 194
241 256 260 256 250 252 259 259 258 263 272 275 278 262 160 149 162 197 163 136 134 139 144 142 143 151 161 167 168 169 171 173 174 173 172 179 179 180 183 182 176 173 176 195
245 250 260 258 247 238 255 255 256 260 268 269 276 245 175 149 131 88 99 119 122 124 125 135 142 154 157 159 163 169 175 176 176 173 173 179 183 183 182 178 175 178 183 194
248 248 253 258 263 260 257 264 272 274 272 275 275 269 215 131 124 127 103 98 118 124 117 119 121 117 131 148 151 166 175 176 178 175 175 179 186 185 183 179 178 181 185 193
246 250 255 261 267 270 265 267 268 266 271 274 277 280 277 176 175 133 118 118 115 125 128 118 112 116 147 156 154 159 173 177 178 172 179 184 186 184 182 180 182 183 192 203
244 256 261 260 262 265 269 264 268 269 267 265 265 266 268 72 86 104 108 122 126 120 138 135 132 136 179 180 165 163 175 169 167 174 181 176 178 184 187 183 187 188 194 203
246 250 261 262 256 260 258 256 262 265 268 268 265 275 310 75 73 121 138 144 136 128 140 127 154 165 171 168 163 172 169 159 160 174 179 175 180 186 190 193 189 197 198 202
246 249 246 257 264 260 261 257 257 261 265 271 264 240 240 157 155 88 98 99 104 145 132 118 166 137 140 145 159 167 168 161 170 178 183 183 186 189 188 193 198 200 200 207
239 238 249 253 255 258 263 266 259 263 267 274 276 267 220 239 122 104 80 72 71 62 84 100 107 122 118 119 136 154 167 174 182 185 187 189 190 193 190 195 200 199 202 208
237 225 236 247 255 259 265 274 283 274 256 280 316 327 334 329 258 111 71 68 60 60 65 70 79 96 108 116 130 168 177 177 189 188 190 193 192 197 197 197 197 198 205 212
233 230 234 244 251 257 280 302 302 264 289 6 15 11 11 9 13 83 81 78 68 61 63 65 65 87 101 119 140 189 195 191 200 185 179 189 195 200 196 193 194 197 213 217
238 240 240 244 249 251 313 296 303 354 358 356 13 25 39 39 53 81 79 77 80 77 67 60 56 66 87 113 131 155 191 190 156 171 184 190 196 213 202 192 200 208 219 213
231 237 248 253 254 342 1 3 24 1 343 342 355 20 34 29 7 99 110 103 99 94 83 72 70 65 60 54 74 139 171 175 186 200 214 207 202 210 201 196 202 204 212 214
235 238 255 255 235 254 273 300 328 337 330 320 316 320 266 248 246 192 140 124 112 94 98 94 98 99 74 43 25 77 149 177 207 219 222 207 209 218 215 207 203 204 210 217
285 256 254 263 278 283 263 285 296 298 305 307 306 286 251 252 234 174 128 127 126 107 85 98 128 128 131 127 59 267 189 187 233 239 235 226 221 214 203 180 202 200 201 211
268 271 262 255 285 291 280 280 286 285 283 283 285 291 259 242 242 216 159 137 137 150 153 187 165 155 154 153 169 218 204 190 220 244 247 239 227 200 189 168 113 39 56 85
Height
1479 1481 1482 1479 1475 1477 1478 1479 1479 1474 1467 1471 1475 1478 1478 1481 1485 1489 1494 1498 1501 1505 1509 1513 1516 1518 1520 1523 1525 1526 1528 1530 1532 1534 1535 1537 1538 1540 1541 1541 1542 1543 1543 1543
1479 1480 1473 1468 1468 1469 1471 1476 1476 1469 1465 1469 1472 1474 1475 1477 1481 1485 1489 1494 1498 1502 1507 1511 1514 1516 1518 1520 1522 1525 1527 1528 1530 1532 1534 1535 1537 1538 1539 1540 1541 1541 1542 1542
1481 1475 1468 1469 1470 1471 1471 1473 1473 1473 1465 1464 1470 1479 1478 1477 1478 1481 1485 1489 1493 1498 1502 1508 1511 1514 1516 1518 1520 1523 1525 1527 1529 1531 1532 1534 1535 1536 1538 1538 1539 1539 1540 1540
1474 1467 1466 1470 1470 1468 1474 1464 1465 1468 1472 1475 1472 1492 1481 1478 1479 1480 1482 1486 1490 1494 1499 1503 1507 1511 1513 1515 1518 1520 1523 1525 1527 1528 1530 1532 1533 1534 1536 1536 1537 1538 1538 1539
1471 1464 1465 1468 1466 1463 1466 1461 1464 1466 1470 1474 1470 1483 1483 1474 1481 1480 1480 1483 1486 1490 1495 1500 1504 1507 1510 1513 1516 1518 1520 1522 1524 1526 1527 1529 1531 1533 1534 1535 1535 1536 1536 1537
1465 1459 1460 1462 1460 1459 1460 1464 1466 1467 1472 1488 1477 1484 1487 1474 1474 1475 1476 1480 1484 1487 1492 1497 1501 1504 1508 1511 1513 1516 1517 1519 1521 1523 1525 1527 1529 1530 1532 1533 1533 1534 1534 1535
1467 1459 1456 1457 1461 1459 1461 1475 1493 1497 1498 1496 1475 1480 1482 1468 1466 1470 1473 1477 1481 1485 1489 1494 1498 1501 1505 1508 1511 1513 1515 1516 1519 1521 1523 1525 1526 1528 1529 1530 1531 1532 1532 1532
1474 1471 1456 1455 1459 1465 1465 1472 1494 1506 1503 1492 1480 1484 1472 1461 1462 1467 1471 1475 1479 1483 1487 1491 1495 1498 1502 1506 1508 1510 1512 1514 1516 1518 1520 1522 1524 1525 1527 1528 1529 1530 1530 1531
1471 1470 1452 1452 1453 1457 1465 1467 1463 1476 1481 1491 1486 1477 1467 1461 1464 1467 1470 1474 1477 1480 1484 1489 1493 1496 1499 1502 1505 1508 1509 1511 1513 1516 1518 1520 1521 1523 1524 1526 1527 1528 1529 1530
1461 1470 1456 1450 1452 1452 1457 1459 1464 1476 1496 1502 1491 1484 1479 1472 1468 1468 1468 1472 1475 1480 1484 1487 1491 1494 1497 1499 1503 1505 1507 1509 1511 1513 1515 1517 1518 1520 1522 1523 1525 1526 1527 1528
1457 1469 1464 1456 1459 1460 1458 1461 1463 1468 1474 1492 1499 1489 1464 1467 1466 1467 1468 1471 1475 1479 1482 1486 1489 1492 1495 1498 1500 1503 1505 1507 1509 1511 1512 1514 1516 1518 1519 1521 1522 1523 1524 1525
1455 1462 1469 1461 1450 1449 1452 1456 1462 1478 1479 1474 1481 1482 1457 1461 1464 1466 1466 1469 1474 1478 1482 1485 1488 1491 1494 1496 1498 1500 1503 1504 1506 1508 1510 1512 1514 1516 1517 1518 1519 1521 1522 1523
1456 1465 1479 1474 1464 1455 1456 1454 1455 1459 1466 1473 1481 1481 1457 1461 1464 1467 1468 1471 1475 1479 1482 1484 1487 1490 1493 1495 1497 1499 1501 1503 1504 1506 1508 1510 1512 1513 1514 1515 1516 1518 1519 1520
1457 1462 1472 1482 1472 1460 1461 1457 1455 1460 1469 1473 1473 1472 1462 1462 1464 1467 1469 1473 1475 1478 1481 1484 1487 1489 1492 1494 1495 1497 1499 1501 1502 1504 1505 1507 1508 1510 1511 1513 1513 1515 1516 1517
1455 1462 1462 1460 1456 1456 1457 1457 1457 1461 1463 1469 1467 1466 1463 1461 1463 1465 1469 1473 1476 1479 1481 1484 1486 1488 1490 1492 1494 1495 1497 1499 1500 1501 1503 1504 1506 1507 1509 1510 1511 1512 1513 1514
1454 1461 1462 1464 1458 1456 1458 1456 1457 1457 1457 1459 1461 1463 1459 1460 1462 1466 1470 1473 1476 1479 1482 1483 1485 1487 1489 1491 1492 1493 1495 1496 1497 1499 1500 1502 1503 1505 1506 1508 1509 1510 1511 1511
1455 1462 1469 1469 1460 1461 1468 1458 1456 1456 1454 1456 1462 1461 1458 1462 1466 1468 1471 1474 1476 1479 1481 1483 1485 1486 1486 1488 1490 1491 1492 1494 1495 1497 1498 1500 1501 1502 1503 1505 1506 1507 1508 1508
1457 1461 1465 1468 1469 1480 1461 1447 1449 1452 1452 1451 1452 1455 1458 1463 1466 1468 1471 1473 1475 1478 1480 1482 1483 1484 1485 1486 1488 1489 1491 1492 1493 1495 1496 1498 1499 1500 1501 1502 1503 1504 1505 1506
1450 1459 1465 1468 1472 1467 1454 1447 1447 1452 1454 1449 1452 1454 1457 1461 1464 1468 1471 1473 1476 1478 1479 1481 1482 1483 1484 1485 1486 1487 1488 1490 1491 1492 1493 1495 1496 1497 1498 1499 1500 1501 1502 1503
1448 1452 1463 1467 1476 1476 1459 1446 1445 1449 1457 1451 1453 1455 1458 1461 1466 1469 1472 1474 1476 1478 1479 1480 1481 1481 1482 1483 1484 1485 1486 1487 1489 1490 1491 1492 1493 1494 1495 1496 1497 1498 1499 1500
1455 1457 1462 1465 1469 1461 1450 1447 1449 1464 1463 1455 1455 1458 1460 1463 1467 1470 1472 1474 1476 1478 1478 1479 1480 1480 1481 1481 1483 1484 1484 1485 1486 1488 1488 1489 1490 1491 1492 1493 1494 1495 1496 1496
1456 1460 1461 1462 1468 1466 1450 1450 1456 1460 1458 1457 1458 1461 1463 1465 1467 1469 1472 1474 1476 1477 1478 1479 1479 1479 1480 1481 1481 1481 1482 1483 1484 1485 1486 1486 1487 1488 1489 1490 1491 1492 1493 1493
1450 1454 1455 1456 1458 1454 1453 1454 1457 1458 1459 1460 1460 1462 1464 1467 1468 1469 1471 1473 1475 1476 1478 1479 1479 1479 1479 1479 1479 1480 1481 1481 1482 1482 1483 1484 1484 1485 1486 1486 1487 1488 1489 1489
1447 1448 1451 1453 1451 1452 1454 1456 1457 1459 1460 1461 1462 1462 1464 1466 1468 1469 1471 1472 1474 1476 1477 1478 1478 1478 1478 1478 1478 1478 1479 1479 1480 1480 1481 1481 1482 1482 1483 1484 1484 1485 1486 1486
1450 1449 1451 1453 1452 1453 1454 1456 1458 1459 1460 1461 1461 1462 1464 1465 1467 1468 1470 1471 1473 1475 1476 1476 1476 1477 1477 1477 1477 1477 1477 1477 1477 1478 1478 1479 1479 1479 1480 1480 1481 1482 1482 1483
1450 1451 1452 1453 1453 1454 1455 1456 1457 1458 1459 1460 1461 1462 1463 1465 1466 1467 1469 1470 1472 1473 1474 1474 1474 1474 1475 1475 1474 1475 1475 1475 1475 1476 1476 1476 1477 1477 1477 1477 1478 1478 1479 1480